Hourly Weather Roundup
Issued by NWS Central Illinois

Home | Current Version | Previous Version | Text Only | Print | Product List | Glossary On
Versions: 1 2 3 4 5 6 7 8 9 10 11 12 13 14 15 16 17 18 19 20 21 22 23 24 25 26 27 28 29 30 31 32 33 34 35 36 37 38 39 40 41 42 43 44 45 46 47 48 49 50
000
NZUS43 KILX 021410
HWRILX

AREA WEATHER ROUNDUP
NATIONAL WEATHER SERVICE, LINCOLN IL
900 AM CDT THU JUL 02 2015


CITY           SKY/WX    TMP DP  RH WIND       PRES   REMARKS
BLOOMINGTON    MOSUNNY   61  56  83 NE16      29.97S
CHAMPAIGN      MOSUNNY   63  56  78 NE12      29.94R
DANVILLE       NOT AVBL
DECATUR        SUNNY     65  57  75 NE10      29.93S
EFFINGHAM      NOT AVBL
FLORA          NOT AVBL
GALESBURG      NOT AVBL
JACKSONVILLE   NOT AVBL
LACON          NOT AVBL
LAWRENCEVILLE  CLOUDY    68  65  90 N7        29.89R
LITCHFIELD     NOT AVBL
$$


CITY           SKY/WX    TMP DP  RH WIND       PRES   REMARKS
LINCOLN        NOT AVBL
MACOMB         NOT AVBL
MATTOON        CLOUDY    63  57  81 NE10      29.91S
MT CARMEL AP   NOT AVBL
OLNEY-NOBLE AP NOT AVBL
PARIS          NOT AVBL
PEORIA         MOSUNNY   63  54  72 E15       29.98R
PONTIAC        NOT AVBL
RANTOUL        NOT AVBL
ROBINSON       NOT AVBL
SPRINGFIELD    CLOUDY    65  58  78 NE9       29.94R
TAYLORVILLE    NOT AVBL
$$

...REGIONAL REPORTS...


CITY           SKY/WX    TMP DP  RH WIND       PRES   REMARKS
CHICAGO O`HARE CLOUDY    59  54  83 NE9       30.01S
KANKAKEE       NOT AVBL
MOLINE         MOSUNNY   61  51  70 NE10      30.00S
MOUNT STERLING NOT AVBL
MOUNT VERNON   CLOUDY    73  66  78 CALM      29.87S
PITTSFIELD     NOT AVBL
QUINCY         CLOUDY    64  55  72 E9        29.94R
ROCKFORD       MOSUNNY   62  52  69 E10       30.04R
$$


CITY           SKY/WX    TMP DP  RH WIND       PRES   REMARKS
BURLINGTON     MOSUNNY   62  55  77 E10       29.97S
CEDAR RAPIDS   PTSUNNY   61  52  72 E8        30.02R
DES MOINES     CLOUDY    63  56  78 E8        29.99S
KIRKSVILLE     CLOUDY    65  61  87 E10       29.96R
OTTUMWA        MOSUNNY   62  54  74 E13       29.98R
ST LOUIS       CLOUDY    66  60  81 NE9       29.89S
$$


CITY           SKY/WX    TMP DP  RH WIND       PRES   REMARKS
TERRE HAUTE    PTSUNNY   65  58  78 NE5       29.91F
EVANSVILLE     CLOUDY    72  69  90 CALM      29.88R
INDIANAPOLIS   CLOUDY    66  56  70 NE12      29.89F
LAFAYETTE      CLOUDY    60  55  83 N8        29.94S
MADISON        SUNNY     59  48  67 E12       30.05S
MILWAUKEE      MOSUNNY   58  51  78 NE10      30.06F
$$





USA.gov is the U.S. government's official web portal to all federal, state and local government web resources and services.